Year,Month,Day,Hour,Minute,Value (Times are PST for windspeed in km/hr)
2014,09,22,00,00,0.00
2014,09,22,00,01,0.00
2014,09,22,00,02,0.00
2014,09,22,00,03,0.00
2014,09,22,00,04,0.00
2014,09,22,00,05,0.10
2014,09,22,00,06,0.80
2014,09,22,00,07,0.40
2014,09,22,00,08,0.40
2014,09,22,00,09,0.50
2014,09,22,00,10,0.10
2014,09,22,00,11,0.00
2014,09,22,00,12,0.50
2014,09,22,00,13,0.40
2014,09,22,00,14,0.00
2014,09,22,00,15,0.10
2014,09,22,00,16,1.30
2014,09,22,00,17,1.00
2014,09,22,00,18,0.90
2014,09,22,00,19,1.00
2014,09,22,00,20,0.70
2014,09,22,00,21,1.90
2014,09,22,00,22,2.60
2014,09,22,00,23,1.70
2014,09,22,00,24,1.20
2014,09,22,00,25,1.20
2014,09,22,00,26,1.50
2014,09,22,00,27,1.00
2014,09,22,00,28,0.40
2014,09,22,00,29,0.00
2014,09,22,00,30,0.00
2014,09,22,00,31,0.00
2014,09,22,00,32,0.10
2014,09,22,00,33,0.40
2014,09,22,00,34,0.30
2014,09,22,00,35,0.80
2014,09,22,00,36,0.80
2014,09,22,00,37,1.60
2014,09,22,00,38,2.00
2014,09,22,00,39,2.00
2014,09,22,00,40,1.70
2014,09,22,00,41,1.70
2014,09,22,00,42,2.00
2014,09,22,00,43,1.90
2014,09,22,00,44,2.70
2014,09,22,00,45,2.60
2014,09,22,00,46,1.40
2014,09,22,00,47,2.30
2014,09,22,00,48,2.00
2014,09,22,00,49,1.90
2014,09,22,00,50,2.90
2014,09,22,00,51,2.90
2014,09,22,00,52,1.60
2014,09,22,00,53,0.90
2014,09,22,00,54,0.10
2014,09,22,00,55,0.50
2014,09,22,00,56,1.80
2014,09,22,00,57,0.70
2014,09,22,00,58,0.90
2014,09,22,00,59,0.10
2014,09,22,01,00,0.00
2014,09,22,01,01,0.00
2014,09,22,01,02,0.20
2014,09,22,01,03,0.70
2014,09,22,01,04,0.90
2014,09,22,01,05,1.40
2014,09,22,01,06,1.60
2014,09,22,01,07,1.90
2014,09,22,01,08,1.80
2014,09,22,01,09,1.90
2014,09,22,01,10,0.90
2014,09,22,01,11,0.70
2014,09,22,01,12,0.20
2014,09,22,01,13,0.00
2014,09,22,01,14,0.00
2014,09,22,01,15,0.00
2014,09,22,01,16,0.00
2014,09,22,01,17,0.00
2014,09,22,01,18,0.20
2014,09,22,01,19,1.60
2014,09,22,01,20,0.50
2014,09,22,01,21,0.00
2014,09,22,01,22,0.00
2014,09,22,01,23,0.00
2014,09,22,01,24,0.50
2014,09,22,01,25,1.50
2014,09,22,01,26,0.30
2014,09,22,01,27,0.00
2014,09,22,01,28,0.00
2014,09,22,01,29,1.50
2014,09,22,01,30,1.60
2014,09,22,01,31,1.20
2014,09,22,01,32,1.60
2014,09,22,01,33,1.60
2014,09,22,01,34,1.40
2014,09,22,01,35,1.30
2014,09,22,01,36,1.00
2014,09,22,01,37,1.10
2014,09,22,01,38,1.30
2014,09,22,01,39,1.10
2014,09,22,01,40,2.20
2014,09,22,01,41,1.70
2014,09,22,01,42,1.70
2014,09,22,01,43,1.00
2014,09,22,01,44,0.40
2014,09,22,01,45,0.00
2014,09,22,01,46,0.00
2014,09,22,01,47,0.00
2014,09,22,01,48,0.00
2014,09,22,01,49,0.00
2014,09,22,01,50,0.80
2014,09,22,01,51,0.40
2014,09,22,01,52,0.00
2014,09,22,01,53,0.00
2014,09,22,01,54,0.00
2014,09,22,01,55,0.00
2014,09,22,01,56,0.00
2014,09,22,01,57,0.00
2014,09,22,01,58,0.90
2014,09,22,01,59,1.70
2014,09,22,02,00,0.30
2014,09,22,02,01,0.30
2014,09,22,02,02,0.70
2014,09,22,02,03,0.70
2014,09,22,02,04,0.20
2014,09,22,02,05,0.00
2014,09,22,02,06,0.00
2014,09,22,02,07,0.00
2014,09,22,02,08,0.90
2014,09,22,02,09,1.10
2014,09,22,02,10,1.60
2014,09,22,02,11,1.60
2014,09,22,02,12,1.00
2014,09,22,02,13,0.10
2014,09,22,02,14,0.00
2014,09,22,02,15,0.00
2014,09,22,02,16,0.50
2014,09,22,02,17,0.10
2014,09,22,02,18,0.00
2014,09,22,02,19,0.00
2014,09,22,02,20,1.30
2014,09,22,02,21,1.50
2014,09,22,02,22,2.40
2014,09,22,02,23,2.70
2014,09,22,02,24,2.90
2014,09,22,02,25,2.90
2014,09,22,02,26,3.00
2014,09,22,02,27,1.20
2014,09,22,02,28,0.40
2014,09,22,02,29,1.30
2014,09,22,02,30,1.10
2014,09,22,02,31,0.00
2014,09,22,02,32,0.60
2014,09,22,02,33,1.10
2014,09,22,02,34,2.10
2014,09,22,02,35,2.50
2014,09,22,02,36,2.90
2014,09,22,02,37,2.30
2014,09,22,02,38,3.50
2014,09,22,02,39,1.60
2014,09,22,02,40,1.20
2014,09,22,02,41,1.70
2014,09,22,02,42,2.70
2014,09,22,02,43,1.60
2014,09,22,02,44,1.90
2014,09,22,02,45,0.90
2014,09,22,02,46,1.00
2014,09,22,02,47,1.60
2014,09,22,02,48,1.10
2014,09,22,02,49,1.30
2014,09,22,02,50,1.30
2014,09,22,02,51,2.60
2014,09,22,02,52,2.40
2014,09,22,02,53,2.60
2014,09,22,02,54,1.90
2014,09,22,02,55,2.00
2014,09,22,02,56,1.10
2014,09,22,02,57,1.20
2014,09,22,02,58,0.70
2014,09,22,02,59,0.30
2014,09,22,03,00,0.70
2014,09,22,03,01,0.40
2014,09,22,03,02,0.10
2014,09,22,03,03,0.70
2014,09,22,03,04,0.80
2014,09,22,03,05,0.70
2014,09,22,03,06,0.00
2014,09,22,03,07,0.00
2014,09,22,03,08,0.00
2014,09,22,03,09,0.00
2014,09,22,03,10,0.00
2014,09,22,03,11,0.00
2014,09,22,03,12,0.00
2014,09,22,03,13,0.00
2014,09,22,03,14,0.00
2014,09,22,03,15,0.00
2014,09,22,03,16,0.00
2014,09,22,03,17,0.00
2014,09,22,03,18,0.00
2014,09,22,03,19,0.00
2014,09,22,03,20,0.00
2014,09,22,03,21,0.00
2014,09,22,03,22,0.00
2014,09,22,03,23,0.10
2014,09,22,03,24,1.30
2014,09,22,03,25,1.40
2014,09,22,03,26,1.70
2014,09,22,03,27,1.30
2014,09,22,03,28,1.90
2014,09,22,03,29,2.20
2014,09,22,03,30,2.30
2014,09,22,03,31,2.30
2014,09,22,03,32,1.70
2014,09,22,03,33,2.60
2014,09,22,03,34,2.50
2014,09,22,03,35,0.80
2014,09,22,03,36,0.80
2014,09,22,03,37,1.00
2014,09,22,03,38,0.20
2014,09,22,03,39,0.00
2014,09,22,03,40,0.40
2014,09,22,03,41,2.50
2014,09,22,03,42,1.70
2014,09,22,03,43,2.50
2014,09,22,03,44,2.10
2014,09,22,03,45,0.90
2014,09,22,03,46,1.90
2014,09,22,03,47,0.40
2014,09,22,03,48,0.10
2014,09,22,03,49,0.00
2014,09,22,03,50,0.40
2014,09,22,03,51,0.70
2014,09,22,03,52,0.00
2014,09,22,03,53,0.20
2014,09,22,03,54,0.40
2014,09,22,03,55,0.10
2014,09,22,03,56,0.10
2014,09,22,03,57,0.00
2014,09,22,03,58,0.00
2014,09,22,03,59,0.00
2014,09,22,04,00,0.00
2014,09,22,04,01,0.00
2014,09,22,04,02,0.00
2014,09,22,04,03,0.00
2014,09,22,04,04,0.00
2014,09,22,04,05,0.00
2014,09,22,04,06,0.00
2014,09,22,04,07,0.00
2014,09,22,04,08,0.00
2014,09,22,04,09,0.00
2014,09,22,04,10,0.00
2014,09,22,04,11,1.70
2014,09,22,04,12,1.80
2014,09,22,04,13,0.40
2014,09,22,04,14,0.10
2014,09,22,04,15,1.20
2014,09,22,04,16,0.70
2014,09,22,04,17,0.00
2014,09,22,04,18,0.70
2014,09,22,04,19,0.70
2014,09,22,04,20,0.00
2014,09,22,04,21,0.00
2014,09,22,04,22,0.00
2014,09,22,04,23,0.00
2014,09,22,04,24,0.00
2014,09,22,04,25,0.00
2014,09,22,04,26,0.00
2014,09,22,04,27,0.00
2014,09,22,04,28,0.00
2014,09,22,04,29,0.00
2014,09,22,04,30,0.00
2014,09,22,04,31,0.00
2014,09,22,04,32,0.00
2014,09,22,04,33,0.00
2014,09,22,04,34,0.00
2014,09,22,04,35,0.00
2014,09,22,04,36,0.00
2014,09,22,04,37,0.00
2014,09,22,04,38,0.00
2014,09,22,04,39,0.00
2014,09,22,04,40,0.00
2014,09,22,04,41,0.00
2014,09,22,04,42,0.00
2014,09,22,04,43,0.00
2014,09,22,04,44,0.00
2014,09,22,04,45,0.00
2014,09,22,04,46,0.00
2014,09,22,04,47,0.50
2014,09,22,04,48,1.80
2014,09,22,04,49,2.30
2014,09,22,04,50,2.50
2014,09,22,04,51,3.20
2014,09,22,04,52,1.90
2014,09,22,04,53,2.40
2014,09,22,04,54,2.40
2014,09,22,04,55,1.80
2014,09,22,04,56,2.30
2014,09,22,04,57,2.00
2014,09,22,04,58,1.80
2014,09,22,04,59,1.60
2014,09,22,05,00,0.40
2014,09,22,05,01,0.00
2014,09,22,05,02,0.20
2014,09,22,05,03,1.10
2014,09,22,05,04,0.80
2014,09,22,05,05,0.00
2014,09,22,05,06,0.80
2014,09,22,05,07,0.80
2014,09,22,05,08,0.00
2014,09,22,05,09,0.00
2014,09,22,05,10,0.00
2014,09,22,05,11,0.10
2014,09,22,05,12,0.00
2014,09,22,05,13,0.00
2014,09,22,05,14,0.00
2014,09,22,05,15,0.00
2014,09,22,05,16,0.00
2014,09,22,05,17,0.00
2014,09,22,05,18,0.20
2014,09,22,05,19,0.00
2014,09,22,05,20,0.00
2014,09,22,05,21,0.00
2014,09,22,05,22,0.00
2014,09,22,05,23,0.00
2014,09,22,05,24,0.00
2014,09,22,05,25,0.10
2014,09,22,05,26,0.50
2014,09,22,05,27,0.20
2014,09,22,05,28,0.60
2014,09,22,05,29,0.20
2014,09,22,05,30,0.40
2014,09,22,05,31,0.20
2014,09,22,05,32,0.40
2014,09,22,05,33,1.40
2014,09,22,05,34,0.60
2014,09,22,05,35,0.60
2014,09,22,05,36,1.90
2014,09,22,05,37,1.20
2014,09,22,05,38,0.70
2014,09,22,05,39,0.50
2014,09,22,05,40,1.40
2014,09,22,05,41,0.40
2014,09,22,05,42,1.40
2014,09,22,05,43,2.30
2014,09,22,05,44,2.00
2014,09,22,05,45,3.10
2014,09,22,05,46,2.10
2014,09,22,05,47,0.50
2014,09,22,05,48,1.00
2014,09,22,05,49,0.10
2014,09,22,05,50,1.60
2014,09,22,05,51,1.40
2014,09,22,05,52,1.00
2014,09,22,05,53,1.80
2014,09,22,05,54,4.10
2014,09,22,05,55,3.10
2014,09,22,05,56,2.60
2014,09,22,05,57,1.10
2014,09,22,05,58,2.20
2014,09,22,05,59,2.30
2014,09,22,06,00,1.40
2014,09,22,06,01,1.40
2014,09,22,06,02,1.60
2014,09,22,06,03,2.80
2014,09,22,06,04,2.20
2014,09,22,06,05,3.20
2014,09,22,06,06,1.90
2014,09,22,06,07,3.90
2014,09,22,06,08,2.70
2014,09,22,06,09,1.50
2014,09,22,06,10,0.40
2014,09,22,06,11,0.30
2014,09,22,06,12,0.40
2014,09,22,06,13,1.50
2014,09,22,06,14,1.70
2014,09,22,06,15,1.10
2014,09,22,06,16,1.50
2014,09,22,06,17,1.70
2014,09,22,06,18,1.60
2014,09,22,06,19,1.90
2014,09,22,06,20,2.00
2014,09,22,06,21,1.60
2014,09,22,06,22,0.70
2014,09,22,06,23,0.10
2014,09,22,06,24,0.20
2014,09,22,06,25,1.70
2014,09,22,06,26,0.80
2014,09,22,06,27,0.10
2014,09,22,06,28,0.10
2014,09,22,06,29,0.50
2014,09,22,06,30,0.90
2014,09,22,06,31,0.50
2014,09,22,06,32,1.60
2014,09,22,06,33,1.00
2014,09,22,06,34,1.20
2014,09,22,06,35,1.20
2014,09,22,06,36,0.60
2014,09,22,06,37,1.00
2014,09,22,06,38,0.90
2014,09,22,06,39,0.80
2014,09,22,06,40,1.30
2014,09,22,06,41,0.00
2014,09,22,06,42,1.30
2014,09,22,06,43,1.10
2014,09,22,06,44,1.80
2014,09,22,06,45,1.60
2014,09,22,06,46,0.50
2014,09,22,06,47,0.20
2014,09,22,06,48,0.00
2014,09,22,06,49,0.10
2014,09,22,06,50,0.80
2014,09,22,06,51,0.90
2014,09,22,06,52,0.80
2014,09,22,06,53,0.00
2014,09,22,06,54,0.00
2014,09,22,06,55,0.00
2014,09,22,06,56,0.00
2014,09,22,06,57,0.00
2014,09,22,06,58,0.00
2014,09,22,06,59,0.00
2014,09,22,07,00,0.70
2014,09,22,07,01,1.40
2014,09,22,07,02,0.90
2014,09,22,07,03,1.10
2014,09,22,07,04,0.60
2014,09,22,07,05,0.00
2014,09,22,07,06,0.00
2014,09,22,07,07,0.00
2014,09,22,07,08,0.00
2014,09,22,07,09,0.00
2014,09,22,07,10,0.00
2014,09,22,07,11,0.00
2014,09,22,07,12,0.00
2014,09,22,07,13,0.00
2014,09,22,07,14,0.00
2014,09,22,07,15,1.60
2014,09,22,07,16,3.50
2014,09,22,07,17,0.50
2014,09,22,07,18,0.20
2014,09,22,07,19,3.30
2014,09,22,07,20,4.80
2014,09,22,07,21,5.60
2014,09,22,07,22,2.90
2014,09,22,07,23,3.40
2014,09,22,07,24,3.30
2014,09,22,07,25,2.30
2014,09,22,07,26,2.90
2014,09,22,07,27,5.90
2014,09,22,07,28,4.60
2014,09,22,07,29,3.30
2014,09,22,07,30,4.40
2014,09,22,07,31,4.20
2014,09,22,07,32,5.10
2014,09,22,07,33,7.90
2014,09,22,07,34,8.20
2014,09,22,07,35,7.80
2014,09,22,07,36,7.70
2014,09,22,07,37,7.10
2014,09,22,07,38,4.30
2014,09,22,07,39,7.50
2014,09,22,07,40,4.20
2014,09,22,07,41,5.30
2014,09,22,07,42,5.10
2014,09,22,07,43,7.60
2014,09,22,07,44,3.30
2014,09,22,07,45,3.80
2014,09,22,07,46,5.70
2014,09,22,07,47,6.50
2014,09,22,07,48,4.40
2014,09,22,07,49,6.00
2014,09,22,07,50,6.00
2014,09,22,07,51,3.60
2014,09,22,07,52,5.00
2014,09,22,07,53,3.60
2014,09,22,07,54,2.40
2014,09,22,07,55,0.70
2014,09,22,07,56,3.30
2014,09,22,07,57,6.10
2014,09,22,07,58,7.60
2014,09,22,07,59,4.80
2014,09,22,08,00,6.10
2014,09,22,08,01,5.80
2014,09,22,08,02,8.70
2014,09,22,08,03,5.00
2014,09,22,08,04,7.30
2014,09,22,08,05,6.70
2014,09,22,08,06,7.50
2014,09,22,08,07,8.70
2014,09,22,08,08,9.70
2014,09,22,08,09,7.20
2014,09,22,08,10,7.80
2014,09,22,08,11,6.10
2014,09,22,08,12,6.90
2014,09,22,08,13,4.40
2014,09,22,08,14,5.70
2014,09,22,08,15,3.60
2014,09,22,08,16,5.30
2014,09,22,08,17,6.70
2014,09,22,08,18,7.70
2014,09,22,08,19,10.10
2014,09,22,08,20,6.00
2014,09,22,08,21,5.90
2014,09,22,08,22,9.10
2014,09,22,08,23,7.40
2014,09,22,08,24,11.40
2014,09,22,08,25,7.80
2014,09,22,08,26,6.70
2014,09,22,08,27,8.50
2014,09,22,08,28,7.20
2014,09,22,08,29,8.70
2014,09,22,08,30,8.50
2014,09,22,08,31,6.40
2014,09,22,08,32,8.40
2014,09,22,08,33,10.00
2014,09,22,08,34,9.50
2014,09,22,08,35,5.40
2014,09,22,08,36,9.40
2014,09,22,08,37,6.70
2014,09,22,08,38,5.20
2014,09,22,08,39,8.10
2014,09,22,08,40,5.50
2014,09,22,08,41,6.20
2014,09,22,08,42,11.90
2014,09,22,08,43,8.60
2014,09,22,08,44,14.90
2014,09,22,08,45,6.60
2014,09,22,08,46,10.50
2014,09,22,08,47,8.70
2014,09,22,08,48,10.90
2014,09,22,08,49,12.10
2014,09,22,08,50,7.30
2014,09,22,08,51,9.30
2014,09,22,08,52,11.20
2014,09,22,08,53,11.50
2014,09,22,08,54,6.50
2014,09,22,08,55,6.10
2014,09,22,08,56,11.00
2014,09,22,08,57,10.40
2014,09,22,08,58,5.10
2014,09,22,08,59,9.20
2014,09,22,09,00,9.50
2014,09,22,09,01,10.10
2014,09,22,09,02,7.70
2014,09,22,09,03,12.40
2014,09,22,09,04,6.50
2014,09,22,09,05,13.50
2014,09,22,09,06,10.20
2014,09,22,09,07,10.00
2014,09,22,09,08,7.30
2014,09,22,09,09,5.90
2014,09,22,09,10,5.70
2014,09,22,09,11,9.70
2014,09,22,09,12,10.20
2014,09,22,09,13,9.80
2014,09,22,09,14,12.10
2014,09,22,09,15,4.90
2014,09,22,09,16,5.20
2014,09,22,09,17,5.40
2014,09,22,09,18,6.70
2014,09,22,09,19,6.40
2014,09,22,09,20,7.70
2014,09,22,09,21,5.70
2014,09,22,09,22,5.50
2014,09,22,09,23,5.30
2014,09,22,09,24,4.60
2014,09,22,09,25,4.10
2014,09,22,09,26,4.20
2014,09,22,09,27,8.00
2014,09,22,09,28,5.80
2014,09,22,09,29,5.20
2014,09,22,09,30,5.60
2014,09,22,09,31,5.40
2014,09,22,09,32,4.50
2014,09,22,09,33,5.10
2014,09,22,09,34,6.30
2014,09,22,09,35,6.90
2014,09,22,09,36,3.90
2014,09,22,09,37,7.20
2014,09,22,09,38,10.40
2014,09,22,09,39,8.00
2014,09,22,09,40,10.00
2014,09,22,09,41,9.60
2014,09,22,09,42,10.00
2014,09,22,09,43,8.20
2014,09,22,09,44,10.80
2014,09,22,09,45,7.90
2014,09,22,09,46,13.40
2014,09,22,09,47,5.10
2014,09,22,09,48,7.70
2014,09,22,09,49,7.80
2014,09,22,09,50,5.20
2014,09,22,09,51,3.80
2014,09,22,09,52,4.00
2014,09,22,09,53,3.90
2014,09,22,09,54,8.10
2014,09,22,09,55,5.60
2014,09,22,09,56,4.80
2014,09,22,09,57,10.30
2014,09,22,09,58,8.50
2014,09,22,09,59,9.80
2014,09,22,10,00,7.60
2014,09,22,10,01,9.50
2014,09,22,10,02,10.90
2014,09,22,10,03,9.70
2014,09,22,10,04,10.20
2014,09,22,10,05,6.40
2014,09,22,10,06,5.30
2014,09,22,10,07,8.60
2014,09,22,10,08,6.60
2014,09,22,10,09,4.90
2014,09,22,10,10,4.10
2014,09,22,10,11,5.20
2014,09,22,10,12,3.00
2014,09,22,10,13,2.00
2014,09,22,10,14,4.00
2014,09,22,10,15,2.00
2014,09,22,10,16,5.00
2014,09,22,10,17,5.00
2014,09,22,10,18,7.80
2014,09,22,10,19,10.10
2014,09,22,10,20,4.20
2014,09,22,10,21,5.80
2014,09,22,10,22,3.20
2014,09,22,10,23,6.90
2014,09,22,10,24,5.50
2014,09,22,10,25,5.80
2014,09,22,10,26,4.30
2014,09,22,10,27,3.20
2014,09,22,10,28,9.20
2014,09,22,10,29,8.40
2014,09,22,10,30,8.00
2014,09,22,10,31,10.50
2014,09,22,10,32,4.10
2014,09,22,10,33,6.10
2014,09,22,10,34,4.80
2014,09,22,10,35,12.30
2014,09,22,10,36,9.20
2014,09,22,10,37,4.00
2014,09,22,10,38,9.20
2014,09,22,10,39,6.10
2014,09,22,10,40,10.40
2014,09,22,10,41,6.00
2014,09,22,10,42,6.70
2014,09,22,10,43,7.30
2014,09,22,10,44,9.80
2014,09,22,10,45,7.30
2014,09,22,10,46,6.90
2014,09,22,10,47,7.90
2014,09,22,10,48,7.20
2014,09,22,10,49,4.00
2014,09,22,10,50,5.40
2014,09,22,10,51,9.30
2014,09,22,10,52,6.10
2014,09,22,10,53,5.40
2014,09,22,10,54,6.50
2014,09,22,10,55,3.30
2014,09,22,10,56,5.80
2014,09,22,10,57,4.80
2014,09,22,10,58,4.30
2014,09,22,10,59,5.80
2014,09,22,11,00,4.60
2014,09,22,11,01,7.60
2014,09,22,11,02,6.10
2014,09,22,11,03,6.90
2014,09,22,11,04,8.10
2014,09,22,11,05,6.40
2014,09,22,11,06,3.40
2014,09,22,11,07,4.60
2014,09,22,11,08,7.30
2014,09,22,11,09,4.50
2014,09,22,11,10,7.40
2014,09,22,11,11,4.50
2014,09,22,11,12,5.50
2014,09,22,11,13,4.90
2014,09,22,11,14,5.40
2014,09,22,11,15,5.30
2014,09,22,11,16,2.40
2014,09,22,11,17,1.10
2014,09,22,11,18,3.90
2014,09,22,11,19,3.70
2014,09,22,11,20,6.70
2014,09,22,11,21,5.30
2014,09,22,11,22,5.40
2014,09,22,11,23,3.00
2014,09,22,11,24,1.40
2014,09,22,11,25,2.90
2014,09,22,11,26,3.20
2014,09,22,11,27,2.80
2014,09,22,11,28,3.70
2014,09,22,11,29,4.90
2014,09,22,11,30,4.30
2014,09,22,11,31,5.10
2014,09,22,11,32,3.20
2014,09,22,11,33,3.60
2014,09,22,11,34,4.10
2014,09,22,11,35,3.70
2014,09,22,11,36,3.20
2014,09,22,11,37,3.20
2014,09,22,11,38,6.30
2014,09,22,11,39,3.00
2014,09,22,11,40,3.30
2014,09,22,11,41,3.30
2014,09,22,11,42,2.70
2014,09,22,11,43,5.00
2014,09,22,11,44,4.20
2014,09,22,11,45,4.50
2014,09,22,11,46,5.10
2014,09,22,11,47,2.90
2014,09,22,11,48,2.30
2014,09,22,11,49,1.70
2014,09,22,11,50,2.10
2014,09,22,11,51,3.50
2014,09,22,11,52,3.20
2014,09,22,11,53,2.90
2014,09,22,11,54,1.90
2014,09,22,11,55,1.80
2014,09,22,11,56,1.30
2014,09,22,11,57,0.80
2014,09,22,11,58,1.40
2014,09,22,11,59,2.40
2014,09,22,12,00,4.70
2014,09,22,12,01,2.20
2014,09,22,12,02,1.50
2014,09,22,12,03,2.30
2014,09,22,12,04,3.20
2014,09,22,12,05,2.70
2014,09,22,12,06,3.10
2014,09,22,12,07,4.70
2014,09,22,12,08,4.10
2014,09,22,12,09,2.20
2014,09,22,12,10,1.70
2014,09,22,12,11,1.20
2014,09,22,12,12,5.30
2014,09,22,12,13,4.70
2014,09,22,12,14,1.50
2014,09,22,12,15,3.40
2014,09,22,12,16,3.00
2014,09,22,12,17,3.30
2014,09,22,12,18,4.60
2014,09,22,12,19,4.70
2014,09,22,12,20,4.40
2014,09,22,12,21,6.10
2014,09,22,12,22,5.10
2014,09,22,12,23,2.00
2014,09,22,12,24,4.80
2014,09,22,12,25,4.00
2014,09,22,12,26,2.40
2014,09,22,12,27,2.20
2014,09,22,12,28,5.30
2014,09,22,12,29,3.20
2014,09,22,12,30,3.60
2014,09,22,12,31,7.20
2014,09,22,12,32,4.50
2014,09,22,12,33,4.30
2014,09,22,12,34,4.20
2014,09,22,12,35,3.10
2014,09,22,12,36,4.00
2014,09,22,12,37,5.80
2014,09,22,12,38,6.00
2014,09,22,12,39,5.10
2014,09,22,12,40,4.10
2014,09,22,12,41,4.60
2014,09,22,12,42,4.20
2014,09,22,12,43,6.00
2014,09,22,12,44,5.10
2014,09,22,12,45,6.40
2014,09,22,12,46,8.20
2014,09,22,12,47,10.30
2014,09,22,12,48,16.60
2014,09,22,12,49,15.30
2014,09,22,12,50,9.00
2014,09,22,12,51,8.70
2014,09,22,12,52,11.60
2014,09,22,12,53,8.50
2014,09,22,12,54,6.50
2014,09,22,12,55,8.30
2014,09,22,12,56,9.50
2014,09,22,12,57,9.80
2014,09,22,12,58,10.10
2014,09,22,12,59,11.10
2014,09,22,13,00,8.50
2014,09,22,13,01,9.00
2014,09,22,13,02,6.40
2014,09,22,13,03,6.90
2014,09,22,13,04,10.80
2014,09,22,13,05,11.00
2014,09,22,13,06,8.60
2014,09,22,13,07,9.20
2014,09,22,13,08,6.30
2014,09,22,13,09,4.30
2014,09,22,13,10,12.70
2014,09,22,13,11,11.20
2014,09,22,13,12,11.40
2014,09,22,13,13,11.30
2014,09,22,13,14,6.30
2014,09,22,13,15,8.80
2014,09,22,13,16,7.40
2014,09,22,13,17,6.10
2014,09,22,13,18,10.50
2014,09,22,13,19,7.00
2014,09,22,13,20,9.40
2014,09,22,13,21,8.80
2014,09,22,13,22,9.50
2014,09,22,13,23,8.00
2014,09,22,13,24,9.30
2014,09,22,13,25,9.00
2014,09,22,13,26,5.30
2014,09,22,13,27,7.30
2014,09,22,13,28,6.10
2014,09,22,13,29,8.90
2014,09,22,13,30,9.20
2014,09,22,13,31,10.40
2014,09,22,13,32,13.20
2014,09,22,13,33,13.40
2014,09,22,13,34,8.10
2014,09,22,13,35,9.10
2014,09,22,13,36,12.50
2014,09,22,13,37,9.20
2014,09,22,13,38,9.90
2014,09,22,13,39,12.40
2014,09,22,13,40,9.20
2014,09,22,13,41,11.40
2014,09,22,13,42,9.60
2014,09,22,13,43,12.90
2014,09,22,13,44,11.90
2014,09,22,13,45,12.00
2014,09,22,13,46,12.80
2014,09,22,13,47,10.70
2014,09,22,13,48,9.80
2014,09,22,13,49,14.10
2014,09,22,13,50,12.80
2014,09,22,13,51,11.00
2014,09,22,13,52,8.50
2014,09,22,13,53,8.80
2014,09,22,13,54,11.20
2014,09,22,13,55,8.60
2014,09,22,13,56,6.00
2014,09,22,13,57,9.20
2014,09,22,13,58,13.70
2014,09,22,13,59,7.10
2014,09,22,14,00,10.60
2014,09,22,14,01,16.00
2014,09,22,14,02,12.60
2014,09,22,14,03,10.50
2014,09,22,14,04,10.30
2014,09,22,14,05,10.60
2014,09,22,14,06,11.50
2014,09,22,14,07,7.50
2014,09,22,14,08,8.30
2014,09,22,14,09,9.40
2014,09,22,14,10,11.30
2014,09,22,14,11,5.40
2014,09,22,14,12,9.20
2014,09,22,14,13,12.80
2014,09,22,14,14,7.10
2014,09,22,14,15,9.30
2014,09,22,14,16,7.90
2014,09,22,14,17,11.40
2014,09,22,14,18,12.60
2014,09,22,14,19,7.00
2014,09,22,14,20,12.30
2014,09,22,14,21,12.70
2014,09,22,14,22,12.80
2014,09,22,14,23,12.50
2014,09,22,14,24,10.40
2014,09,22,14,25,8.50
2014,09,22,14,26,8.70
2014,09,22,14,27,13.10
2014,09,22,14,28,8.80
2014,09,22,14,29,4.80
2014,09,22,14,30,6.60
2014,09,22,14,31,7.20
2014,09,22,14,32,4.90
2014,09,22,14,33,5.10
2014,09,22,14,34,4.40
2014,09,22,14,35,5.90
2014,09,22,14,36,10.50
2014,09,22,14,37,6.30
2014,09,22,14,38,6.10
2014,09,22,14,39,5.50
2014,09,22,14,40,5.30
2014,09,22,14,41,5.60
2014,09,22,14,42,5.50
2014,09,22,14,43,12.70
2014,09,22,14,44,6.80
2014,09,22,14,45,7.50
2014,09,22,14,46,6.30
2014,09,22,14,47,12.80
2014,09,22,14,48,8.90
2014,09,22,14,49,6.30
2014,09,22,14,50,5.70
2014,09,22,14,51,2.10
2014,09,22,14,52,4.30
2014,09,22,14,53,6.60
2014,09,22,14,54,7.50
2014,09,22,14,55,6.60
2014,09,22,14,56,3.30
2014,09,22,14,57,3.00
2014,09,22,14,58,2.20
2014,09,22,14,59,1.50
2014,09,22,15,00,0.80
2014,09,22,15,01,0.60
2014,09,22,15,02,1.60
2014,09,22,15,03,4.30
2014,09,22,15,04,5.60
2014,09,22,15,05,9.00
2014,09,22,15,06,5.20
2014,09,22,15,07,5.30
2014,09,22,15,08,8.60
2014,09,22,15,09,6.30
2014,09,22,15,10,4.60
2014,09,22,15,11,6.70
2014,09,22,15,12,7.90
2014,09,22,15,13,5.20
2014,09,22,15,14,5.60
2014,09,22,15,15,5.70
2014,09,22,15,16,5.90
2014,09,22,15,17,6.20
2014,09,22,15,18,3.80
2014,09,22,15,19,6.50
2014,09,22,15,20,3.50
2014,09,22,15,21,5.20
2014,09,22,15,22,9.10
2014,09,22,15,23,7.20
2014,09,22,15,24,6.30
2014,09,22,15,25,9.20
2014,09,22,15,26,8.20
2014,09,22,15,27,11.50
2014,09,22,15,28,12.00
2014,09,22,15,29,10.00
2014,09,22,15,30,14.20
2014,09,22,15,31,9.40
2014,09,22,15,32,8.00
2014,09,22,15,33,7.50
2014,09,22,15,34,8.90
2014,09,22,15,35,6.60
2014,09,22,15,36,5.00
2014,09,22,15,37,6.60
2014,09,22,15,38,4.60
2014,09,22,15,39,6.50
2014,09,22,15,40,6.00
2014,09,22,15,41,4.50
2014,09,22,15,42,4.50
2014,09,22,15,43,2.80
2014,09,22,15,44,5.30
2014,09,22,15,45,6.40
2014,09,22,15,46,5.20
2014,09,22,15,47,4.50
2014,09,22,15,48,3.80
2014,09,22,15,49,5.70
2014,09,22,15,50,7.00
2014,09,22,15,51,4.60
2014,09,22,15,52,7.70
2014,09,22,15,53,8.20
2014,09,22,15,54,9.70
2014,09,22,15,55,5.40
2014,09,22,15,56,9.50
2014,09,22,15,57,4.80
2014,09,22,15,58,9.40
2014,09,22,15,59,7.30
2014,09,22,16,00,5.30
2014,09,22,16,01,7.40
2014,09,22,16,02,6.60
2014,09,22,16,03,6.30
2014,09,22,16,04,6.30
2014,09,22,16,05,5.70
2014,09,22,16,06,6.40
2014,09,22,16,07,8.30
2014,09,22,16,08,6.30
2014,09,22,16,09,4.90
2014,09,22,16,10,5.40
2014,09,22,16,11,7.70
2014,09,22,16,12,7.00
2014,09,22,16,13,7.00
2014,09,22,16,14,9.10
2014,09,22,16,15,6.80
2014,09,22,16,16,9.70
2014,09,22,16,17,10.10
2014,09,22,16,18,7.60
2014,09,22,16,19,6.40
2014,09,22,16,20,7.90
2014,09,22,16,21,14.80
2014,09,22,16,22,11.90
2014,09,22,16,23,8.40
2014,09,22,16,24,7.20
2014,09,22,16,25,7.40
2014,09,22,16,26,13.60
2014,09,22,16,27,9.40
2014,09,22,16,28,9.50
2014,09,22,16,29,6.30
2014,09,22,16,30,5.10
2014,09,22,16,31,7.70
2014,09,22,16,32,6.50
2014,09,22,16,33,6.60
2014,09,22,16,34,6.60
2014,09,22,16,35,13.50
2014,09,22,16,36,13.30
2014,09,22,16,37,14.50
2014,09,22,16,38,10.20
2014,09,22,16,39,9.80
2014,09,22,16,40,14.10
2014,09,22,16,41,11.00
2014,09,22,16,42,9.20
2014,09,22,16,43,11.00
2014,09,22,16,44,7.90
2014,09,22,16,45,11.70
2014,09,22,16,46,13.10
2014,09,22,16,47,9.40
2014,09,22,16,48,4.50
2014,09,22,16,49,7.00
2014,09,22,16,50,12.60
2014,09,22,16,51,9.70
2014,09,22,16,52,6.10
2014,09,22,16,53,11.70
2014,09,22,16,54,5.50
2014,09,22,16,55,4.10
2014,09,22,16,56,12.30
2014,09,22,16,57,5.00
2014,09,22,16,58,7.30
2014,09,22,16,59,11.70
2014,09,22,17,00,11.60
2014,09,22,17,01,11.60
2014,09,22,17,02,11.00
2014,09,22,17,03,9.00
2014,09,22,17,04,4.40
2014,09,22,17,05,6.90
2014,09,22,17,06,9.50
2014,09,22,17,07,10.60
2014,09,22,17,08,8.30
2014,09,22,17,09,12.20
2014,09,22,17,10,10.20
2014,09,22,17,11,10.10
2014,09,22,17,12,5.30
2014,09,22,17,13,5.70
2014,09,22,17,14,4.90
2014,09,22,17,15,8.60
2014,09,22,17,16,7.20
2014,09,22,17,17,9.10
2014,09,22,17,18,7.90
2014,09,22,17,19,10.50
2014,09,22,17,20,8.90
2014,09,22,17,21,10.10
2014,09,22,17,22,8.30
2014,09,22,17,23,10.10
2014,09,22,17,24,7.30
2014,09,22,17,25,8.40
2014,09,22,17,26,11.40
2014,09,22,17,27,12.60
2014,09,22,17,28,5.30
2014,09,22,17,29,3.20
2014,09,22,17,30,2.80
2014,09,22,17,31,1.90
2014,09,22,17,32,5.40
2014,09,22,17,33,3.90
2014,09,22,17,34,3.40
2014,09,22,17,35,2.50
2014,09,22,17,36,1.30
2014,09,22,17,37,3.60
2014,09,22,17,38,6.40
2014,09,22,17,39,1.80
2014,09,22,17,40,1.10
2014,09,22,17,41,3.20
2014,09,22,17,42,4.10
2014,09,22,17,43,5.80
2014,09,22,17,44,5.00
2014,09,22,17,45,3.00
2014,09,22,17,46,2.70
2014,09,22,17,47,4.20
2014,09,22,17,48,5.40
2014,09,22,17,49,3.80
2014,09,22,17,50,4.70
2014,09,22,17,51,5.50
2014,09,22,17,52,5.20
2014,09,22,17,53,5.70
2014,09,22,17,54,4.60
2014,09,22,17,55,3.30
2014,09,22,17,56,6.50
2014,09,22,17,57,3.90
2014,09,22,17,58,3.30
2014,09,22,17,59,8.50
2014,09,22,18,00,6.10
2014,09,22,18,01,12.60